Notices

What's New in latest Release from April 7th, 2021:

- Updated Glossary, including Speed of Maximum Gust, and Total Hourly Precipitation

- Updated national and regional climate services offices contacts and prices information

- Addition of station inventory lists for 1981-2010, 1971-2000, and 1961-1990 Normals.

If you haven't already, please take our survey and provide feedback about our website: https://eccc.sondage-survey.ca/f/LanguageSelection.aspx?s=442ca660-fcf1-47c0-95a9-59707d6fd709

Hourly Data Report for November 23, 2020

CARBERRY CS
MANITOBA
Current Station Operator: ECCC - MSC

49°54'20.900" N
99°21'26.800" W
383.50 m
5010547
71170
WZE

Download Data

Hourly Data (November 2020)
Hourly Data Report for November 23, 2020
TIME
LST
Temp Definition
°C
Dew Point Definition
°C
Rel Hum Definition
%
Precip. Amount Definition
mm

Wind Dir Definition
10's deg

Wind Spd Definition
km/h
Visibility Definition
km
Stn Press Definition
kPa
Hmdx Definition


Wind Chill Definition


Weather Definition


00:00 -9.4 -10.4 93 0.0 12 13   97.83   -15 LegendNANA
01:00 -9.2 -9.8 96 0.0 13 15   97.81   -16 LegendNANA
02:00 -9.3 -9.8 96 0.0 13 16   97.75   -16 LegendNANA
03:00 -9.4 -9.9 96 0.0 13 16   97.71   -16 LegendNANA
04:00 -9.3 -9.8 96 0.0 13 15   97.64   -16 LegendNANA
05:00 -9.1 -9.6 96 0.0 13 13   97.59   -15 LegendNANA
06:00 -9.0 -9.6 95 0.0 13 14   97.56   -15 LegendNANA
07:00 -8.8 -9.4 95 0.0 13 14   97.51   -15 LegendNANA
08:00 -8.8 -9.6 94 0.0 12 14   97.47   -15 LegendNANA
09:00 -9.0 -10.2 91 0.0 12 17   97.42   -16 LegendNANA
10:00 -8.5 -10.2 88 0.0 12 19   97.33   -16 LegendNANA
11:00 -6.9 -9.8 80 0.0 12 21   97.24   -14 LegendNANA
12:00 -5.5 -9.6 73 0.0 12 23   97.14   -13 LegendNANA
13:00 -4.1 -8.6 71 0.0 12 20   97.02   -10 LegendNANA
14:00 -3.7 -8.4 69 0.0 11 19   96.92   -10 LegendNANA
15:00 -3.9 -8.4 71 0.0 10 17   96.88   -10 LegendNANA
16:00 -4.5 -8.2 75 0.0 10 17   96.84   -10 LegendNANA
17:00 -5.8 -8.4 82 0.0 10 14   96.84   -11 LegendNANA
18:00 -6.6 -8.7 85 0.0 10 12   96.79   -12 LegendNANA
19:00 -7.6 -9.6 86 0.0 10 11   96.73   -13 LegendNANA
20:00 -8.5 -10.0 89 0.0 9 8   96.67   -13 LegendNANA
21:00 -7.3 -8.7 90 0.0 10 10   96.58   -12 LegendNANA
22:00 -4.8 -7.5 81 0.0 12 12   96.51   -10 LegendNANA
23:00 -2.0 -5.2 79 0.0 15 15   96.44   -7 LegendNANA

Notes on Data Quality.

Legend

  • E = Estimated
  • M = Missing
  • NA = Not Available*
  • [empty] = Indicates an unobserved value
Date modified: